TimeMST,TemperatureF,Dew PointF,Humidity,Sea Level PressureIn,VisibilityMPH,Wind Direction,Wind SpeedMPH,Gust SpeedMPH,PrecipitationIn,Events,Conditions,WindDirDegrees,DateUTC
12:15 AM,9.5,4.5,80,30.19,10.0,West,5.8,-,N/A,,Clear,260,2013-01-04 07:15:00
12:35 AM,9.5,4.1,79,30.18,10.0,West,6.9,-,N/A,,Clear,260,2013-01-04 07:35:00
12:55 AM,11.1,4.5,75,30.18,10.0,WSW,9.2,-,N/A,,Clear,250,2013-01-04 07:55:00
1:35 AM,9.9,3.4,75,30.18,10.0,WSW,8.1,-,N/A,,Clear,240,2013-01-04 08:35:00
1:55 AM,9.5,3.2,76,30.18,10.0,WSW,11.5,-,N/A,,Clear,250,2013-01-04 08:55:00
2:15 AM,10.2,3.7,75,30.18,10.0,WSW,8.1,-,N/A,,Clear,240,2013-01-04 09:15:00
4:55 AM,8.6,2.8,77,30.16,10.0,WSW,10.4,-,N/A,,Clear,250,2013-01-04 11:55:00
5:15 AM,8.2,2.5,77,30.16,10.0,WSW,10.4,-,N/A,,Clear,250,2013-01-04 12:15:00
5:35 AM,8.4,2.8,78,30.16,10.0,West,9.2,-,N/A,,Clear,260,2013-01-04 12:35:00
6:15 AM,8.4,2.8,78,30.17,10.0,WSW,10.4,-,N/A,,Clear,250,2013-01-04 13:15:00
6:35 AM,8.2,2.5,77,30.17,10.0,West,10.4,-,N/A,,Clear,260,2013-01-04 13:35:00
6:55 AM,7.7,2.1,78,30.16,10.0,WSW,11.5,-,N/A,,Clear,250,2013-01-04 13:55:00
7:15 AM,7.3,1.8,78,30.17,10.0,WSW,9.2,-,N/A,,Clear,250,2013-01-04 14:15:00
7:35 AM,7.7,1.9,77,30.17,10.0,WSW,9.2,-,N/A,,Clear,250,2013-01-04 14:35:00
7:55 AM,9.5,3.2,76,30.17,10.0,WSW,10.4,-,N/A,,Clear,250,2013-01-04 14:55:00
8:15 AM,11.3,4.3,73,30.17,10.0,WSW,9.2,-,N/A,,Clear,250,2013-01-04 15:15:00
8:35 AM,13.5,5.7,71,30.17,10.0,West,9.2,-,N/A,,Clear,260,2013-01-04 15:35:00
8:55 AM,14.2,5.9,70,30.18,10.0,West,10.4,-,N/A,,Clear,260,2013-01-04 15:55:00
9:15 AM,15.6,7.3,70,30.18,10.0,West,11.5,-,N/A,,Clear,260,2013-01-04 16:15:00
9:35 AM,16.7,8.4,70,30.17,10.0,West,10.4,-,N/A,,Clear,260,2013-01-04 16:35:00
9:55 AM,18.5,9.5,68,30.17,10.0,WSW,10.4,-,N/A,,Clear,250,2013-01-04 16:55:00
10:15 AM,20.3,10.4,66,30.17,10.0,West,11.5,-,N/A,,Clear,260,2013-01-04 17:15:00
10:35 AM,22.1,12.0,65,30.16,10.0,WSW,10.4,-,N/A,,Clear,250,2013-01-04 17:35:00
10:55 AM,24.1,12.9,62,30.16,10.0,WSW,9.2,-,N/A,,Clear,250,2013-01-04 17:55:00
11:15 AM,25.3,13.8,62,30.16,10.0,WSW,6.9,-,N/A,,Clear,240,2013-01-04 18:15:00
11:35 AM,26.1,14.7,62,30.14,10.0,WSW,9.2,-,N/A,,Clear,240,2013-01-04 18:35:00
11:55 AM,27.0,16.0,63,30.14,10.0,West,9.2,-,N/A,,Clear,270,2013-01-04 18:55:00
12:15 PM,27.5,16.5,63,30.13,10.0,West,8.1,-,N/A,,Clear,260,2013-01-04 19:15:00
12:35 PM,28.6,17.4,63,30.12,10.0,West,8.1,-,N/A,,Clear,260,2013-01-04 19:35:00
12:55 PM,30.0,18.9,63,30.09,10.0,West,8.1,-,N/A,,Clear,260,2013-01-04 19:55:00
1:15 PM,30.6,19.9,65,30.08,10.0,West,8.1,-,N/A,,Clear,270,2013-01-04 20:15:00
1:35 PM,30.6,20.7,67,30.07,10.0,West,8.1,-,N/A,,Clear,260,2013-01-04 20:35:00
1:55 PM,31.3,21.4,67,30.07,10.0,West,6.9,-,N/A,,Clear,260,2013-01-04 20:55:00
2:15 PM,32.4,22.3,66,30.06,10.0,West,4.6,-,N/A,,Clear,270,2013-01-04 21:15:00
2:35 PM,32.9,22.8,66,30.06,10.0,West,4.6,-,N/A,,Clear,270,2013-01-04 21:35:00
2:55 PM,32.2,23.2,69,30.06,10.0,West,3.5,-,N/A,,Clear,270,2013-01-04 21:55:00
3:15 PM,32.0,23.0,69,30.05,10.0,WNW,3.5,-,N/A,,Clear,290,2013-01-04 22:15:00
3:35 PM,32.9,23.4,68,30.04,10.0,Calm,Calm,-,N/A,,Clear,0,2013-01-04 22:35:00
3:55 PM,32.9,21.0,62,30.04,10.0,Calm,Calm,-,N/A,,Clear,0,2013-01-04 22:55:00
4:15 PM,32.4,18.1,56,30.04,10.0,Calm,Calm,-,N/A,,Clear,0,2013-01-04 23:15:00
4:35 PM,30.2,19.9,66,30.03,10.0,Calm,Calm,-,N/A,,Clear,0,2013-01-04 23:35:00
4:55 PM,26.8,16.7,66,30.03,10.0,Calm,Calm,-,N/A,,Clear,0,2013-01-04 23:55:00
5:15 PM,23.7,15.1,70,30.04,10.0,Calm,Calm,-,N/A,,Clear,0,2013-01-05 00:15:00
5:35 PM,22.1,15.1,74,30.04,10.0,Calm,Calm,-,N/A,,Clear,0,2013-01-05 00:35:00
5:55 PM,19.9,15.4,83,30.05,10.0,Calm,Calm,-,N/A,,Clear,0,2013-01-05 00:55:00
6:15 PM,17.8,12.9,81,30.06,10.0,West,3.5,-,N/A,,Clear,270,2013-01-05 01:15:00
6:35 PM,14.7,10.9,85,30.05,10.0,WNW,4.6,-,N/A,,Clear,300,2013-01-05 01:35:00
7:15 PM,14.4,10.9,86,30.06,10.0,SSW,5.8,-,N/A,,Clear,200,2013-01-05 02:15:00
7:35 PM,14.0,9.3,82,30.06,10.0,West,3.5,-,N/A,,Clear,280,2013-01-05 02:35:00
7:55 PM,14.0,10.9,88,30.05,10.0,WNW,4.6,-,N/A,,Clear,290,2013-01-05 02:55:00
8:15 PM,15.1,11.1,84,30.05,10.0,West,5.8,-,N/A,,Clear,280,2013-01-05 03:15:00
8:35 PM,10.8,7.5,87,30.05,10.0,West,5.8,-,N/A,,Clear,270,2013-01-05 03:35:00
8:55 PM,11.8,8.8,88,30.05,10.0,West,6.9,-,N/A,,Clear,260,2013-01-05 03:55:00
9:15 PM,10.8,7.5,87,30.04,10.0,WSW,5.8,-,N/A,,Clear,240,2013-01-05 04:15:00
9:35 PM,10.0,7.0,87,30.03,10.0,West,8.1,-,N/A,,Clear,280,2013-01-05 04:35:00
9:55 PM,11.1,7.5,85,30.03,10.0,WSW,9.2,-,N/A,,Clear,250,2013-01-05 04:55:00
10:15 PM,10.4,6.8,85,30.03,10.0,WSW,6.9,-,N/A,,Clear,250,2013-01-05 05:15:00
10:35 PM,10.6,7.5,87,30.02,10.0,West,5.8,-,N/A,,Clear,260,2013-01-05 05:35:00
10:55 PM,9.9,6.4,86,30.02,10.0,WSW,4.6,-,N/A,,Clear,250,2013-01-05 05:55:00
11:15 PM,9.5,6.4,87,30.02,10.0,WSW,3.5,-,N/A,,Clear,240,2013-01-05 06:15:00
11:35 PM,8.1,4.1,84,30.01,10.0,WNW,3.5,-,N/A,,Clear,290,2013-01-05 06:35:00
11:55 PM,10.2,7.2,87,30.01,10.0,WSW,3.5,-,N/A,,Clear,250,2013-01-05 06:55:00